User: anonymous   Login
Location: D�derode
(51.8092°N, 10.1065°E)
Time: 04:14:37
(UTC+00:00)
Language:

Cosmos 1943 Rocket - Orbit

View from above orbital plane
View from above orbital plane
View from above satellite
View from above satellite

Ground track
Ground track

The orbit data is extracted from the following two-line orbital elements,

1 19120U 88039B   21059.53203715  .00000070  00000-0  56219-4 0  9998
2 19120  71.0175 347.4162 0024297 274.0211  85.8136 14.19218837697988
Epoch (UTC): 28 February 2021 12:46:08
Eccentricity: 0.0024297
inclination: 71.0175°
perigee height: 810 km
apogee height: 845 km
right ascension of ascending node: 347.4162°
argument of perigee: 274.0211°
revolutions per day: 14.19218837
mean anomaly at epoch: 85.8136°
orbit number at epoch: 69798

The dashed part of the orbit path shows where the satellite is in the earth's shadow,  

DLR